Wind_Speed
8 7 8 5 6 4 6 6 10 7 3 3 4 4 2 3 4 8 1 1 4 4 3 3 3 3 2 2 2 3 5 5 4 5 6 7 9 9 8 8 8 9 8
8 9 5 6 5 5 6 6 6 5 6 6 4 4 2 0 5 8 5 5 4 4 7 6 4 4 3 3 3 3 3 3 4 5 5 6 7 8 8 8 9 9 8
10 7 7 8 8 7 5 6 4 4 3 7 7 7 5 7 8 8 9 9 10 7 7 8 10 6 6 4 5 4 3 3 3 6 7 7 8 9 9 11 10 10 9
10 8 7 7 8 6 6 7 6 9 5 5 5 4 7 8 9 10 10 10 12 13 16 11 10 13 10 8 9 8 7 4 3 5 8 9 8 8 8 9 10 11 10
8 10 8 8 7 7 8 9 9 12 7 6 7 7 8 8 9 12 13 13 13 12 16 17 19 17 15 13 13 12 10 7 5 5 7 8 8 9 10 11 12 12 12
9 7 8 10 9 9 9 9 12 10 8 7 5 8 10 9 8 11 11 16 12 17 17 19 17 17 16 17 16 16 13 12 9 7 8 8 9 10 11 11 12 13 13
9 8 8 9 8 10 11 14 13 10 9 6 6 7 6 9 11 8 11 10 10 13 16 24 23 17 22 19 18 22 16 16 13 11 9 10 11 12 13 12 12 12 12
10 10 7 7 10 10 12 11 10 10 8 7 5 4 2 3 3 7 7 9 9 8 8 11 15 24 24 25 22 22 26 20 20 16 13 12 14 14 14 14 14 13 12
9 11 10 9 7 10 10 10 10 10 9 8 8 5 2 3 7 8 9 6 5 4 4 7 11 16 25 29 30 29 28 27 22 24 19 16 16 16 16 16 16 15 14
11 14 12 11 12 8 10 9 9 8 9 9 9 10 9 8 6 4 6 10 9 9 12 11 12 12 17 22 24 24 29 30 25 25 23 21 19 17 18 18 18 18 17
11 12 14 15 13 11 9 13 10 10 8 9 8 10 10 10 12 13 11 6 10 15 17 16 13 17 17 17 23 25 25 31 28 25 25 23 22 21 20 19 20 20 20
12 13 14 15 16 15 12 14 13 12 12 12 10 12 12 11 11 11 13 14 13 10 13 12 10 12 18 17 19 22 26 31 31 27 24 23 24 24 24 23 21 21 21
13 16 18 17 18 15 15 17 16 13 12 12 14 12 15 17 15 15 15 15 16 10 11 9 10 6 13 17 19 21 22 27 32 33 30 27 27 26 26 26 25 24 23
13 12 12 16 18 18 16 16 16 14 13 15 17 17 15 16 16 15 14 13 12 11 9 10 8 7 10 13 16 20 22 22 27 32 34 32 30 29 28 27 27 27 26
14 14 15 16 16 16 17 18 18 17 16 17 17 17 17 16 14 14 14 11 10 11 10 5 4 7 6 9 9 17 20 21 21 24 28 33 33 33 32 30 28 29 29
17 18 15 17 18 18 18 19 18 17 19 16 15 18 17 15 13 14 13 9 11 10 9 8 5 6 8 5 5 10 13 17 16 18 24 26 29 33 34 34 34 32 31
19 20 21 21 22 20 20 21 20 19 20 19 19 18 18 17 14 12 9 12 14 13 13 10 9 9 6 4 1 2 2 8 9 13 18 23 24 30 32 33 32 33 32
19 21 22 22 22 24 23 23 23 20 20 21 22 20 19 14 15 13 13 15 13 13 13 11 8 8 5 9 6 7 6 4 4 6 5 15 19 21 28 33 32 33 34
20 20 21 25 24 24 25 25 25 24 22 23 22 21 19 18 18 17 15 15 13 12 10 9 10 5 4 8 7 5 6 5 7 2 2 4 12 20 22 28 30 32 34
19 20 20 24 24 23 23 24 25 25 23 23 22 23 21 20 19 17 15 14 14 12 11 13 9 9 9 9 8 9 8 9 9 7 9 8 7 13 16 17 20 26 29
16 17 20 24 24 24 22 23 23 24 24 23 22 22 22 19 20 19 14 14 15 14 14 12 11 10 10 9 10 7 8 12 9 12 11 14 14 11 13 14 18 22 24
20 21 22 20 24 24 24 25 24 20 20 19 20 20 21 21 24 23 21 20 19 17 19 15 15 15 14 14 13 10 12 10 13 13 8 8 16 13 14 14 13 14 14
22 21 24 20 34 41 27 26 22 23 21 19 19 19 18 18 23 20 20 23 23 23 19 17 19 18 17 15 16 19 17 13 13 11 11 11 13 16 14 14 19 21 22
17 18 22 21 37 26 25 26 19 19 22 21 20 18 20 21 17 23 19 21 24 25 25 23 22 15 17 15 19 19 18 17 19 17 14 17 12 15 16 15 17 19 18
7 7 15 14 17 32 29 24 15 21 24 23 21 20 21 22 20 23 21 20 22 19 18 18 12 16 18 19 16 13 13 12 14 14 10 18 17 16 16 21 21 18 21
12 8 7 12 19 26 19 17 17 21 18 19 21 22 24 25 23 24 27 27 22 20 16 16 19 18 23 24 23 24 17 15 14 12 13 19 16 15 13 10 16 18 19
Wind_Direction
160 164 174 157 149 145 160 171 200 157 133 163 144 195 214 308 164 62 356 341 233 212 202 193 203 203 191 177 138 154 153 140 145 126 146 153 150 154 153 155 153 164 169
172 199 160 170 173 159 162 219 174 182 196 208 226 223 163 143 178 191 211 202 253 227 236 242 245 242 218 236 212 177 199 177 165 185 173 165 162 164 161 155 155 161 162
194 187 180 185 170 200 193 205 175 226 269 263 241 243 259 261 250 238 229 231 227 237 237 228 238 245 244 230 249 233 210 207 175 174 178 175 150 146 159 161 156 151 156
209 176 195 208 190 207 190 198 227 260 248 261 231 273 270 266 266 256 252 243 245 234 240 235 234 232 228 219 232 240 239 211 203 179 187 187 195 196 183 175 167 165 162
197 185 195 200 211 209 214 219 224 243 261 265 250 272 284 293 258 260 263 265 235 240 239 232 234 234 233 224 220 234 238 236 214 198 200 181 184 180 174 173 168 164 162
225 195 230 218 212 215 225 232 225 245 243 243 278 300 293 280 260 267 265 262 258 235 238 232 222 222 222 215 217 221 228 240 229 213 206 198 185 183 182 179 177 174 170
229 224 224 256 243 238 235 232 247 247 244 245 259 307 308 278 275 277 287 269 263 255 255 248 231 228 219 218 218 225 220 228 239 226 216 209 200 197 192 190 189 189 187
228 246 218 245 260 246 250 253 253 256 246 237 233 294 324 269 229 278 263 270 278 266 280 256 236 226 228 222 220 228 226 223 229 239 226 222 210 208 204 198 197 199 200
242 256 250 235 239 255 270 264 261 253 252 243 257 252 264 250 296 272 279 205 318 286 285 293 255 236 233 237 238 234 231 224 227 231 235 225 222 216 214 210 206 207 209
246 253 252 251 246 254 267 282 284 254 250 242 257 258 256 255 276 294 256 236 277 296 296 288 269 253 243 245 237 236 228 221 227 227 231 230 225 221 223 221 218 215 218
236 241 244 264 251 253 259 258 257 269 254 259 252 276 274 263 263 260 284 270 261 294 299 285 280 260 245 242 235 233 225 218 222 227 230 230 229 228 228 228 228 225 224
242 257 241 243 254 254 247 259 258 252 255 248 256 256 259 267 279 271 274 289 282 294 297 302 277 271 251 245 240 234 228 222 219 225 230 234 234 233 233 233 234 234 233
239 243 248 254 258 266 255 249 259 253 255 252 265 260 275 276 278 277 277 284 287 289 290 290 294 282 262 257 247 233 235 225 226 229 233 235 237 238 237 237 237 239 239
240 238 250 264 269 237 248 257 253 254 262 265 260 265 262 269 275 280 278 282 291 290 281 292 275 273 276 257 254 235 236 230 230 232 234 235 237 237 238 239 239 241 243
232 239 235 239 250 247 251 254 255 255 249 255 270 274 271 278 284 276 281 284 279 296 308 289 249 292 282 272 255 236 236 234 230 234 232 235 237 235 236 238 244 245 245
242 228 244 249 243 244 245 252 254 261 262 251 259 273 277 277 283 281 276 273 269 271 275 285 290 281 276 289 259 225 229 236 231 240 238 237 240 239 240 243 246 244 246
238 241 253 249 251 253 250 252 254 247 252 261 264 269 267 277 277 287 280 259 280 280 273 278 266 275 285 278 238 175 229 241 255 252 235 234 240 238 238 241 241 240 244
245 250 252 253 249 251 253 253 256 251 256 258 264 267 268 268 277 283 258 266 277 277 273 275 273 242 262 269 243 244 231 230 128 335 253 245 244 241 241 243 243 244 246
253 249 255 259 251 249 250 251 253 256 254 255 258 261 258 262 274 277 267 255 265 267 267 263 266 255 255 265 258 289 282 239 220 152 250 255 269 250 251 246 244 246 249
253 255 257 258 258 258 250 248 248 255 256 256 258 260 261 265 269 260 257 250 249 244 238 240 249 244 247 242 240 272 274 276 283 286 262 275 285 269 249 248 249 246 248
252 256 261 266 262 257 260 257 252 248 252 258 258 257 256 255 256 252 245 246 236 230 232 227 232 227 237 226 222 243 244 261 278 267 244 275 279 272 265 252 252 251 250
251 246 253 266 282 263 257 254 247 244 249 252 260 258 258 245 256 251 244 231 240 232 220 220 226 225 223 217 226 225 248 241 256 242 270 255 235 263 292 291 287 281 263
256 265 266 277 318 318 251 247 245 246 243 242 247 255 252 248 262 267 252 241 238 240 235 234 230 224 235 228 209 223 225 233 241 262 266 261 264 254 258 254 256 268 276
274 275 280 257 339 336 279 254 238 251 250 244 242 244 252 239 243 252 244 251 247 243 242 238 239 246 241 239 243 234 234 233 241 236 245 262 259 266 254 261 267 273 287
294 357 348 7 253 254 291 285 272 255 256 253 249 245 242 251 248 246 243 249 254 255 250 261 265 249 239 239 240 247 240 237 238 238 249 249 253 262 264 253 255 269 278
258 275 282 263 269 265 284 282 271 263 257 259 262 259 250 245 238 246 244 246 243 249 255 252 246 246 246 248 245 242 241 240 239 255 249 248 250 258 277 272 264 258 265
Height
1601 1603 1603 1604 1604 1605 1606 1607 1606 1607 1609 1610 1609 1609 1609 1607 1606 1606 1607 1612 1612 1612 1612 1614 1615 1615 1616 1615 1615 1615 1616 1616 1616 1616 1616 1616 1616 1617 1618 1619 1620 1622 1624
1601 1601 1602 1602 1604 1605 1606 1604 1605 1606 1607 1607 1608 1608 1609 1609 1610 1611 1611 1611 1612 1612 1612 1615 1616 1616 1616 1615 1617 1616 1617 1616 1616 1616 1617 1617 1617 1618 1619 1620 1621 1623 1624
1599 1601 1602 1602 1603 1604 1604 1603 1604 1606 1606 1605 1607 1607 1609 1608 1608 1609 1609 1610 1608 1611 1612 1613 1615 1615 1615 1615 1618 1619 1618 1617 1616 1616 1617 1618 1618 1619 1620 1621 1622 1623 1625
1597 1598 1602 1602 1602 1604 1604 1606 1606 1604 1605 1604 1605 1605 1606 1607 1607 1606 1607 1607 1608 1607 1610 1611 1612 1612 1615 1616 1615 1618 1617 1618 1617 1616 1617 1618 1619 1619 1620 1621 1622 1623 1625
1597 1598 1600 1602 1601 1603 1603 1604 1604 1603 1603 1602 1603 1604 1604 1604 1605 1604 1604 1604 1604 1604 1602 1608 1609 1610 1612 1613 1614 1616 1617 1617 1617 1617 1617 1617 1618 1618 1620 1621 1623 1624 1626
1597 1597 1598 1599 1599 1601 1602 1602 1601 1601 1601 1601 1601 1602 1602 1601 1601 1601 1600 1600 1601 1601 1600 1602 1605 1606 1609 1611 1612 1612 1614 1614 1615 1616 1617 1617 1617 1618 1620 1622 1623 1625 1626
1596 1597 1597 1597 1598 1598 1599 1600 1599 1600 1600 1600 1600 1600 1600 1601 1597 1599 1597 1597 1597 1598 1597 1599 1601 1603 1604 1607 1609 1609 1611 1612 1614 1614 1616 1616 1617 1618 1619 1621 1623 1624 1626
1596 1596 1596 1597 1597 1598 1596 1597 1597 1597 1597 1597 1598 1597 1598 1598 1597 1596 1596 1596 1595 1595 1594 1595 1596 1599 1600 1601 1604 1605 1606 1607 1611 1612 1613 1615 1616 1618 1619 1620 1621 1623 1625
1594 1595 1595 1595 1595 1596 1596 1595 1595 1595 1595 1596 1595 1596 1596 1596 1595 1594 1593 1592 1590 1591 1591 1590 1591 1591 1595 1596 1599 1600 1602 1605 1606 1608 1610 1613 1615 1616 1618 1618 1620 1622 1624
1592 1592 1594 1594 1594 1595 1593 1594 1593 1593 1593 1593 1593 1593 1593 1594 1593 1593 1591 1590 1589 1588 1587 1586 1588 1587 1589 1589 1592 1594 1596 1600 1603 1605 1607 1609 1611 1613 1615 1617 1618 1620 1622
1589 1590 1591 1590 1591 1592 1594 1594 1593 1592 1591 1591 1591 1590 1590 1590 1590 1590 1588 1587 1586 1586 1584 1583 1582 1581 1583 1583 1586 1588 1591 1594 1598 1600 1604 1606 1607 1609 1612 1614 1616 1618 1619
1585 1584 1586 1587 1587 1588 1590 1591 1590 1589 1589 1589 1588 1589 1589 1588 1587 1587 1585 1584 1585 1583 1581 1579 1578 1577 1578 1579 1581 1583 1585 1589 1593 1596 1599 1601 1604 1606 1608 1610 1613 1615 1616
1581 1580 1581 1582 1583 1583 1584 1585 1586 1586 1586 1586 1586 1586 1585 1583 1583 1583 1582 1581 1580 1580 1578 1577 1574 1574 1574 1575 1575 1578 1580 1583 1587 1591 1594 1597 1599 1601 1604 1606 1608 1611 1613
1577 1579 1578 1578 1579 1579 1581 1580 1581 1583 1583 1582 1582 1581 1581 1581 1580 1579 1579 1578 1577 1577 1575 1574 1573 1572 1571 1570 1571 1573 1576 1578 1581 1584 1588 1591 1594 1596 1599 1601 1604 1606 1608
1574 1574 1575 1576 1576 1576 1576 1576 1577 1577 1578 1579 1578 1577 1577 1577 1576 1576 1576 1575 1574 1574 1574 1572 1572 1569 1569 1567 1566 1565 1569 1573 1576 1579 1582 1585 1588 1591 1593 1596 1599 1601 1603
1570 1570 1570 1570 1571 1571 1572 1572 1572 1574 1575 1575 1576 1574 1574 1573 1573 1572 1572 1572 1571 1571 1570 1569 1569 1569 1568 1565 1565 1565 1564 1566 1571 1573 1576 1579 1582 1584 1587 1590 1593 1595 1597
1567 1566 1565 1566 1566 1565 1566 1567 1567 1568 1569 1571 1571 1569 1570 1570 1569 1569 1570 1569 1566 1566 1565 1567 1568 1567 1566 1566 1565 1565 1565 1565 1568 1570 1570 1573 1575 1577 1580 1583 1585 1588 1590
1562 1561 1561 1560 1560 1560 1560 1561 1561 1563 1564 1567 1567 1566 1565 1566 1565 1565 1566 1565 1564 1563 1564 1564 1564 1564 1565 1564 1565 1566 1566 1566 1566 1568 1563 1568 1570 1571 1574 1576 1578 1580 1582
1556 1558 1558 1556 1555 1556 1555 1555 1555 1556 1558 1560 1562 1561 1561 1562 1560 1560 1560 1560 1560 1559 1560 1561 1562 1563 1564 1563 1563 1564 1565 1564 1564 1563 1562 1564 1565 1566 1567 1568 1569 1572 1574
1554 1555 1555 1553 1552 1551 1551 1550 1550 1551 1551 1553 1555 1555 1556 1555 1555 1555 1555 1556 1556 1556 1556 1557 1557 1558 1560 1561 1561 1562 1563 1563 1562 1561 1560 1560 1560 1560 1561 1562 1563 1564 1566
1552 1552 1552 1551 1549 1549 1550 1547 1545 1546 1547 1547 1549 1549 1550 1550 1551 1551 1552 1551 1551 1551 1551 1552 1553 1554 1555 1556 1556 1559 1560 1560 1559 1560 1559 1557 1558 1557 1557 1556 1556 1558 1559
1543 1545 1543 1545 1549 1547 1546 1544 1545 1543 1541 1542 1542 1544 1544 1544 1544 1544 1545 1546 1547 1546 1546 1548 1548 1549 1549 1550 1552 1553 1553 1556 1558 1556 1555 1557 1557 1556 1554 1553 1554 1555 1556
1540 1540 1539 1538 1540 1533 1533 1537 1538 1539 1538 1537 1538 1539 1540 1539 1538 1538 1539 1541 1542 1543 1543 1544 1543 1544 1544 1544 1546 1546 1548 1550 1551 1552 1553 1554 1554 1552 1553 1553 1552 1552 1552
1535 1533 1532 1529 1541 1532 1522 1517 1526 1532 1533 1531 1531 1533 1534 1534 1535 1534 1536 1536 1537 1539 1540 1541 1542 1544 1545 1545 1544 1543 1543 1544 1545 1547 1549 1549 1549 1549 1549 1548 1549 1548 1549
1533 1531 1524 1524 1545 1539 1524 1527 1522 1527 1527 1526 1526 1526 1529 1530 1530 1531 1533 1534 1535 1536 1538 1537 1538 1539 1540 1541 1542 1543 1542 1542 1541 1541 1543 1544 1544 1544 1544 1543 1544 1544 1545
1530 1528 1524 1525 1524 1528 1527 1526 1523 1525 1523 1522 1522 1520 1521 1523 1524 1526 1528 1528 1529 1532 1535 1534 1534 1534 1535 1536 1537 1537 1539 1539 1538 1537 1537 1537 1539 1541 1541 1540 1538 1539 1539